Voltar ao catálogo

STARLINK-37206

AtivoComunicaçõesVLEO
NORAD 68326·PAYLOAD·🇺🇸 United States

Lançado Mar 22, 2026 de Cape Canaveral Space Force Station

Loading…

Próximas Passagens (próximas 24 horas)

TLE

AtualizadoSource: CelesTrak SupGP

Época: Sep 15, 2026, 03:02 UTC

1 68326C 26059F   26258.12687500 -.00076797  00000+0 -22692-2 0  2587
2 68326  53.1594 186.6853 0001310  87.7348 241.1398 15.34425972    14

Acompanhe STARLINK-37206 em tempo real com AllMySat

Download on the App Store